Weather History for Joplin, MO

Change the Weather History Date:

Sunday, February 17, 2013

  Actual Average Record
Temperature  
Mean Temperature 49 °F 40 °F  
Max Temperature 65 °F 51 °F 74 °F (2011)
Min Temperature 33 °F 30 °F 4 °F (1993)
Degree Days  
Heating Degree Days 16 25  
Month to date heating degree days 417 455  
Since 1 July heating degree days 2770 3004  
Cooling Degree Days 0 0  
Month to date cooling degree days 0 0  
Year to date cooling degree days 1 0  
Moisture  
Dew Point 24 °F    
Average Humidity 40    
Maximum Humidity 56    
Minimum Humidity 24    
Precipitation  
Precipitation 0.00 in 0.09 in 0.63 in (1961)
Month to date precipitation 0.82 1.31  
Year to date precipitation 3.27 3.34  
Snow  
Snow 0.00 in - - ()
Month to date snowfall 0.3  
Snow Depth 0.00 in    
Sea Level Pressure  
Sea Level Pressure 29.95 in    
Wind  
Wind Speed 12 mph (South)    
Max Wind Speed 25 mph    
Max Gust Speed 29 mph    
Visibility 10 miles    
Events      
T = Trace of Precipitation, MM = Missing Value Source: NWS Daily Summary

Daily Weather History Graph

Daily Weather History Graph

Search for Another Location

Airport:

Trip Planner

Search our weather history database for the weather conditions in past years. The results will help you decide how hot, cold, wet, or windy it might be!

Date:

Astronomy

Feb. 17, 2013 Rise Set
Actual Time 7:04 AM CST 6:00 PM CST
Civil Twilight 6:37 AM CST 6:26 PM CST
Nautical Twilight 6:07 AM CST 6:57 PM CST
Astronomical Twilight 5:37 AM CST 7:27 PM CST
Moon 11:08 AM CST (2/17) 12:46 AM CST (2/17)
Length of Visible Light 11h 49m
Length of Day
10h 56m
Waxing Crescent, 49% of the Moon is Illuminated
Feb 17
Waxing Crescent
Feb 17
First Quarter
Feb 25
Full
Mar 4
Last Quarter
Mar 11
New

Hourly Weather History & Observations

Time (CST) Temp. Windchill Dew Point Humidity Pressure Visibility Wind Dir Wind Speed Gust Speed Precip Events Conditions
12:53 AM 35.1 °F 28.6 °F 14.0 °F 42% 30.11 in 10.0 mi SSE 8.1 mph - N/A   Mostly Cloudy
1:53 AM 34.0 °F 26.6 °F 14.0 °F 44% 30.10 in 10.0 mi South 9.2 mph - N/A   Partly Cloudy
2:53 AM 34.0 °F 27.2 °F 14.0 °F 44% 30.09 in 10.0 mi South 8.1 mph - N/A   Clear
3:53 AM 33.1 °F 24.4 °F 16.0 °F 50% 30.07 in 10.0 mi South 11.5 mph - N/A   Clear
4:53 AM 34.0 °F 25.5 °F 17.1 °F 50% 30.07 in 10.0 mi South 11.5 mph - N/A   Clear
5:53 AM 34.0 °F 26.0 °F 19.0 °F 54% 30.07 in 10.0 mi South 10.4 mph - N/A   Clear
6:53 AM 34.0 °F 26.0 °F 19.9 °F 56% 30.06 in 10.0 mi South 10.4 mph - N/A   Clear
7:53 AM 37.4 °F 28.9 °F 19.4 °F 48% 30.03 in 10.0 mi South 13.8 mph - N/A   Clear
8:53 AM 45.0 °F 38.2 °F 25.0 °F 46% 30.04 in 10.0 mi SSW 15.0 mph 24.2 mph N/A   Clear
9:53 AM 48.0 °F - 24.1 °F 39% 30.02 in 10.0 mi South 13.8 mph 23.0 mph N/A   Clear
10:53 AM 52.0 °F - 26.1 °F 37% 30.01 in 10.0 mi South 12.7 mph - N/A   Clear
11:53 AM 55.0 °F - 26.1 °F 33% 29.97 in 10.0 mi South 12.7 mph - N/A   Clear
12:53 PM 60.1 °F - 27.0 °F 28% 29.93 in 10.0 mi South 13.8 mph 18.4 mph N/A   Clear
1:53 PM 63.0 °F - 28.0 °F 27% 29.89 in 10.0 mi South 12.7 mph 19.6 mph N/A   Clear
2:53 PM 64.0 °F - 28.0 °F 26% 29.87 in 10.0 mi SSW 13.8 mph 24.2 mph N/A   Clear
3:53 PM 64.0 °F - 28.0 °F 26% 29.84 in 10.0 mi South 15.0 mph 24.2 mph N/A   Clear
4:53 PM 64.0 °F - 26.1 °F 24% 29.82 in 10.0 mi South 23.0 mph 26.5 mph N/A   Clear
5:53 PM 60.1 °F - 28.0 °F 30% 29.82 in 10.0 mi South 12.7 mph - N/A   Clear
6:53 PM 57.0 °F - 28.0 °F 33% 29.81 in 10.0 mi South 13.8 mph - N/A   Clear
7:53 PM 55.9 °F - 28.0 °F 34% 29.80 in 10.0 mi South 15.0 mph - N/A   Clear
8:53 PM 55.0 °F - 28.0 °F 35% 29.79 in 10.0 mi South 17.3 mph - N/A   Clear
9:53 PM 54.0 °F - 28.9 °F 38% 29.79 in 10.0 mi South 18.4 mph 26.5 mph N/A   Clear
11:53 PM 55.0 °F - 28.0 °F 35% 29.76 in 10.0 mi South 20.7 mph 28.8 mph N/A   Clear